Location: Bayshore Village Mobile Home Park
(26.6945°N, 81.8642°W)
Time: 00:42:58
(UTC+00:00)

Hubble Space Telescope - Pass Details

Date: 27 October 2021
Orbit: 535 x 538 km, 28.5° (Epoch: 28 November)

Event Time Altitude Azimuth Distance (km) Brightness Sun altitude
Rises 01:25:05 0° 254° (WSW) 2,660 5.2 -35.4°
Reaches altitude 10° 01:27:20 10° 253° (WSW) 1,771 4.1 -35.9°
Enters shadow 01:27:28 11° 253° (WSW) 1,719 4.0 -35.9°
